コワル第1彗星

99P/Kowal 1 (2022)

English version
Home page
Updated on July 2, 2021

---------------------------------------------------------------------

・ プロフィール

・ 写真集

・ 軌道要素

Epoch 2022 Apr. 11.0 TT = JDT 2459680.5
T 2022 Apr. 12.63827 TT                                 Rudenko
q   4.7061112            (2000.0)            P               Q
n   0.06532600     Peri.  174.93248     -0.92015282     +0.38993384
a   6.1058390      Node    28.10162     -0.36185507     -0.81204040
e   0.2292441      Incl.    4.33963     -0.14959848     -0.43421422
P  15.1
From 965 observations 1977 Apr. 24-2021 May 1, mean residual 0".9.

・ 星図

・ 光度変化

        m1 = 0.7 + 5 logΔ + 20.0 log r

---------------------------------------------------------------------

軌道要素はM.P.E.C. 2021-J28に掲載されたものです。
星図はステラナビゲータ Ver.10 (アストロアーツ) で作成したものです。
光度グラフはComet for Windowsで作成したものです。

---------------------------------------------------------------------

Copyright(C) Seiichi Yoshida (comet@aerith.net). All rights reserved.